Deming, NM

8:53 AM MDT on October 20, 2017 (GMT -0600)
Deming Municipal

Weather History for KDMN - June, 2013

Change the Weather History Date:

Thursday, June 20, 2013

  Actual Average Record
Temperature  
Mean Temperature 82 °F 79 °F  
Max Temperature 102 °F 97 °F 105 °F (1989)
Min Temperature 63 °F 61 °F 51 °F (1969)
Cooling Degree Days 18    
Growing Degree Days 32 (Base 50)    
Moisture  
Dew Point 21 °F    
Average Humidity 11    
Maximum Humidity 20    
Minimum Humidity 5    
Precipitation  
Precipitation 0.00 in 0.03 in 0.13 in (1993)
Month to date precipitation 0.26  
Year to date precipitation 2.67  
Sea Level Pressure  
Sea Level Pressure 29.71 in    
Wind  
Wind Speed 6 mph (West)    
Max Wind Speed 21 mph    
Max Gust Speed 34 mph    
Visibility 10 miles    
Events      
T = Trace of Precipitation, MM = Missing Value Source: NWS Daily Summary

Daily Weather History Graph

Daily Weather History Graph

Search for Another Location

Airport or City:

Trip Planner

Search our weather history database for the weather conditions in past years. The results will help you decide how hot, cold, wet, or windy it might be!

Date:

Astronomy

Jun. 20, 2013 Rise Set
Actual Time 6:04 AM MDT 8:20 PM MDT
Civil Twilight 5:36 AM MDT 8:49 PM MDT
Nautical Twilight 5:01 AM MDT 9:23 PM MDT
Astronomical Twilight 4:23 AM MDT 10:01 PM MDT
Moon 5:31 PM MDT 3:25 AM MDT
Length of Visible Light 15h 12m
Length of Day
14h 16m
Waxing Gibbous, 89% of the Moon is Illuminated
Jun 20
Waxing Gibbous
Jun 23
Full
Jun 29
Last Quarter
Jul 8
New
Jul 15
First Quarter

Hourly Weather History & Observations

Time (MDT) Temp. Dew Point Humidity Pressure Visibility Wind Dir Wind Speed Gust Speed Precip Events Conditions
12:53 AM 73.0 °F 19.9 °F 14% 29.66 in 10.0 mi NW 3.5 mph - N/A   Clear
1:53 AM 72.0 °F 16.0 °F 12% 29.68 in 10.0 mi South 8.1 mph - N/A   Clear
2:53 AM 68.0 °F 18.0 °F 15% 29.69 in 10.0 mi West 4.6 mph - N/A   Clear
3:53 AM 70.0 °F 19.0 °F 14% 29.69 in 10.0 mi Calm Calm - N/A   Clear
4:53 AM 64.0 °F 21.9 °F 20% 29.72 in 10.0 mi Calm Calm - N/A   Clear
5:53 AM 64.0 °F 15.1 °F 15% 29.73 in 10.0 mi NNW 8.1 mph - N/A   Clear
6:53 AM 63.0 °F 15.1 °F 16% 29.75 in 10.0 mi Calm Calm - N/A   Clear
7:53 AM 73.0 °F 17.1 °F 12% 29.77 in 10.0 mi Calm Calm - N/A   Clear
8:53 AM 79.0 °F 18.0 °F 10% 29.78 in 10.0 mi Calm Calm - N/A   Clear
9:53 AM 84.9 °F 19.0 °F 9% 29.77 in 10.0 mi NW 3.5 mph - N/A   Clear
10:53 AM 89.1 °F 24.1 °F 9% 29.76 in 10.0 mi Variable 4.6 mph - N/A   Clear
11:53 AM 91.9 °F 30.9 °F 11% 29.75 in 10.0 mi Variable 3.5 mph - N/A   Clear
12:53 PM 95.0 °F 33.1 °F 11% 29.73 in 10.0 mi Variable 4.6 mph 18.4 mph N/A   Clear
1:33 PM 98.6 °F 30.2 °F 9% 29.97 in 10.0 mi WSW 17.3 mph 23.0 mph N/A   Clear
1:53 PM 100.0 °F 33.1 °F 10% 29.70 in 10.0 mi WSW 17.3 mph 27.6 mph N/A   Clear
2:53 PM 102.0 °F 30.0 °F 8% 29.67 in 9.0 mi West 19.6 mph 27.6 mph N/A   Clear
3:53 PM 100.9 °F 25.0 °F 7% 29.64 in 6.0 mi West 18.4 mph 34.5 mph N/A   Haze
4:53 PM 100.0 °F 21.0 °F 6% 29.64 in 10.0 mi West 16.1 mph 31.1 mph N/A   Clear
5:53 PM 98.1 °F 19.0 °F 6% 29.64 in 10.0 mi West 20.7 mph 31.1 mph N/A   Clear
6:53 PM 97.0 °F 16.0 °F 5% 29.64 in 10.0 mi West 15.0 mph 25.3 mph N/A   Clear
7:53 PM 95.0 °F 19.0 °F 6% 29.63 in 10.0 mi West 15.0 mph 20.7 mph N/A   Clear
8:53 PM 88.0 °F 18.0 °F 8% 29.66 in 10.0 mi WSW 8.1 mph - N/A   Clear
9:53 PM 82.9 °F 17.1 °F 9% 29.69 in 10.0 mi West 5.8 mph - N/A   Clear
10:53 PM 75.0 °F 19.9 °F 13% 29.73 in 10.0 mi SE 5.8 mph - N/A   Clear
11:53 PM 79.0 °F 18.0 °F 10% 29.73 in 10.0 mi WSW 5.8 mph - N/A   Clear